Tracking 25378 objects as of 22-Jan-2022
HD Live streaming from Space Station
objects crossing your sky now

STARLINK-2598

Track STARLINK-2598 now!
10-day predictions
STARLINK-2598 is classified as:


NORAD ID: 48385
Int'l Code: 2021-038AJ
Perigee: 552.9 km
Apogee: 555.9 km
Inclination: 53.1 °
Period: 95.6 minutes
Semi major axis: 6925 km
RCS: Unknown
Launch date: May 4, 2021
Source: United States (US)
Launch site: AIR FORCE EASTERN TEST RANGE (AFETR)
aabbcc
Your satellite tracking list
Your tracking list is empty




NASA's NSSDC Master Catalog

Two Line Element Set (TLE):
1 48385U 21038AJ  22021.44947696 -.00000672  00000-0 -26221-4 0  9992
2 48385  53.0554 282.3653 0002107  60.1549 299.9650 15.06385548 41062
Source of the keplerian elements: AFSPC